Terminal Aerodrome Forecast
Issued by NWS

Home | Current Version | Previous Version | Text Only | Print | Product List | Glossary On
Versions: 1 2 3 4 5 6 7 8 9 10 11 12
000
FTUS45 KRIW 171700
TAFCPR
TAF
KCPR 171727Z 1718/1818 28013G22KT P6SM FEW120
     FM180130 36010KT P6SM FEW120
     FM180800 05008KT P6SM SCT200
     FM181200 VRB06KT P6SM SCT150=

USA.gov is the U.S. government's official web portal to all federal, state and local government web resources and services.